Weather History for Luverne, MN

Change the Weather History Date:

Wednesday, December 19, 2012

  Actual Average (KFSD) Record (KFSD)
Temperature  
Mean Temperature 18 °F 18 °F  
Max Temperature 30 °F 27 °F 54 °F (1894)
Min Temperature 6 °F 9 °F -24 °F (1983)
Degree Days  
Heating Degree Days 47 47  
Month to date heating degree days 845  
Since 1 July heating degree days 2557  
Cooling Degree Days 0 0  
Month to date cooling degree days 0  
Year to date cooling degree days 690  
Moisture  
Dew Point 14 °F    
Average Humidity 85    
Maximum Humidity 93    
Minimum Humidity 64    
Precipitation  
Precipitation 0.00 in 0.02 in 0.77 in (1902)
Month to date precipitation 0.46  
Year to date precipitation 26.15  
Snow  
Snow 0.00 in 0.30 in 5.40 in (1960)
Month to date snowfall 5.2  
Since 1 July snowfall 13.9  
Snow Depth -    
Sea Level Pressure  
Sea Level Pressure 29.93 in    
Wind  
Wind Speed 2 mph (North)    
Max Wind Speed 15 mph    
Max Gust Speed 20 mph    
Visibility 6 miles    
Events Fog , Snow    
T = Trace of Precipitation, MM = Missing Value Source: NWS Daily Summary

Daily Weather History Graph

Daily Weather History Graph

Search for Another Location

Airport:

Trip Planner

Search our weather history database for the weather conditions in past years. The results will help you decide how hot, cold, wet, or windy it might be!

Date:

Astronomy

Dec. 19, 2012 Rise Set
Actual Time 7:54 AM CST 4:50 PM CST
Civil Twilight 7:21 AM CST 5:23 PM CST
Nautical Twilight 6:45 AM CST 5:59 PM CST
Astronomical Twilight 6:10 AM CST 6:34 PM CST
Moon 11:51 AM CST (12/19) No Moon Set
Length of Visible Light 10h 01m
Length of Day
8h 56m
Waxing Crescent, 45% of the Moon is Illuminated
Dec 19
Waxing Crescent
Dec 19
First Quarter
Dec 28
Full
Jan 4
Last Quarter
Jan 11
New

Hourly Weather History & Observations

Time (CST) Temp. Windchill Dew Point Humidity Pressure Visibility Wind Dir Wind Speed Gust Speed Precip Events Conditions
12:15 AM 14.0 °F - 12.2 °F 93% 29.85 in 0.2 mi Calm Calm - N/A Fog Light Freezing Fog
12:36 AM 14.0 °F - 12.2 °F 93% 29.84 in 0.2 mi Calm Calm - N/A Fog Light Freezing Fog
12:55 AM 14.0 °F - 12.2 °F 93% 29.85 in 0.2 mi Calm Calm - N/A Fog Light Freezing Fog
1:15 AM 14.0 °F - 10.4 °F 86% 29.84 in 0.2 mi Calm Calm - N/A Fog Light Freezing Fog
1:35 AM 12.2 °F - 10.4 °F 92% 29.84 in 0.5 mi Calm Calm - N/A Fog Light Freezing Fog
1:55 AM 10.4 °F 4.0 °F 6.8 °F 85% 29.85 in 0.2 mi South 3.5 mph - N/A Fog Light Freezing Fog
2:15 AM 8.6 °F - 5.0 °F 85% 29.85 in 0.2 mi Calm Calm - N/A Fog Light Freezing Fog
2:36 AM 12.2 °F - 8.6 °F 85% 29.85 in 3.0 mi Calm Calm - N/A   Clear
2:55 AM 10.4 °F - 6.8 °F 85% 29.85 in 5.0 mi Calm Calm - N/A   Clear
3:15 AM 8.6 °F - 3.2 °F 79% 29.86 in 7.0 mi Calm Calm - N/A   Clear
3:35 AM 8.6 °F - 5.0 °F 85% 29.87 in 2.0 mi Calm Calm - N/A   Scattered Clouds
3:55 AM 8.6 °F - 5.0 °F 85% 29.88 in 5.0 mi Calm Calm - N/A   Scattered Clouds
4:15 AM 8.6 °F - 3.2 °F 79% 29.88 in 5.0 mi Calm Calm - N/A   Clear
4:35 AM 8.6 °F - 5.0 °F 85% 29.89 in 1.2 mi Calm Calm - N/A   Mostly Cloudy
4:55 AM 8.6 °F - 5.0 °F 85% 29.90 in 0.5 mi Calm Calm - N/A Fog Light Freezing Fog
5:15 AM 8.6 °F - 3.2 °F 79% 29.90 in 0.2 mi Calm Calm - N/A Fog Light Freezing Fog
5:35 AM 8.6 °F - 3.2 °F 79% 29.91 in 0.2 mi Calm Calm - N/A Fog Light Freezing Fog
6:15 AM 6.8 °F - 3.2 °F 85% 29.90 in 2.0 mi Calm Calm - N/A   Clear
6:35 AM 6.8 °F - 3.2 °F 85% 29.90 in 7.0 mi Calm Calm - N/A   Clear
6:55 AM 6.8 °F - 3.2 °F 85% 29.89 in 7.0 mi Calm Calm - N/A   Clear
7:15 AM 6.8 °F - 3.2 °F 85% 29.89 in 7.0 mi Calm Calm - N/A   Scattered Clouds
7:35 AM 6.8 °F - 3.2 °F 85% 29.89 in 7.0 mi Calm Calm - N/A   Scattered Clouds
7:55 AM 6.8 °F - 3.2 °F 85% 29.90 in 10.0 mi Calm Calm - N/A   Clear
8:16 AM 8.6 °F - 5.0 °F 85% 29.91 in 7.0 mi Calm Calm - N/A Snow Light Snow
8:55 AM 10.4 °F - 5.0 °F 79% 29.93 in 10.0 mi Calm Calm - N/A   Clear
9:16 AM 10.4 °F - 8.6 °F 92% 29.94 in 10.0 mi Calm Calm - N/A   Clear
9:35 AM 10.4 °F - 8.6 °F 92% 29.94 in 10.0 mi Calm Calm - N/A   Clear
9:55 AM 12.2 °F - 8.6 °F 85% 29.95 in 10.0 mi Calm Calm - N/A   Clear
10:15 AM 14.0 °F - 12.2 °F 93% 29.95 in 10.0 mi Calm Calm - N/A   Clear
10:35 AM 15.8 °F - 14.0 °F 93% 29.95 in 10.0 mi Calm Calm - N/A   Mostly Cloudy
10:55 AM 17.6 °F - 14.0 °F 86% 29.96 in 10.0 mi Calm Calm - N/A   Overcast
11:15 AM 19.4 °F - 17.6 °F 93% 29.95 in 10.0 mi Calm Calm - N/A   Overcast
11:35 AM 21.2 °F - 19.4 °F 93% 29.95 in 10.0 mi Calm Calm - N/A   Scattered Clouds
11:55 AM 21.2 °F - 19.4 °F 93% 29.95 in 10.0 mi Calm Calm - N/A   Mostly Cloudy
12:15 PM 23.0 °F - 21.2 °F 93% 29.94 in 7.0 mi Calm Calm - N/A   Overcast
12:35 PM 23.0 °F - 21.2 °F 93% 29.94 in 10.0 mi Calm Calm - N/A   Overcast
12:55 PM 23.0 °F - 21.2 °F 93% 29.95 in 5.0 mi Calm Calm - N/A   Overcast
1:15 PM 24.8 °F - 23.0 °F 93% 29.95 in 7.0 mi Calm Calm - N/A   Mostly Cloudy
1:35 PM 24.8 °F - 21.2 °F 86% 29.94 in 7.0 mi Calm Calm - N/A   Overcast
1:55 PM 24.8 °F 20.5 °F 23.0 °F 93% 29.94 in 10.0 mi SSW 3.5 mph - N/A   Overcast
2:15 PM 24.8 °F 20.5 °F 23.0 °F 93% 29.93 in 10.0 mi NW 3.5 mph - N/A   Overcast
2:35 PM 26.6 °F 22.6 °F 24.8 °F 93% 29.92 in 10.0 mi North 3.5 mph - N/A   Overcast
2:55 PM 28.4 °F - 26.6 °F 93% 29.92 in 5.0 mi Calm Calm - N/A   Overcast
3:15 PM 30.2 °F 24.3 °F 28.4 °F 93% 29.92 in 10.0 mi North 5.8 mph - N/A   Overcast
3:35 PM 30.2 °F 23.4 °F 24.8 °F 80% 29.92 in 10.0 mi North 6.9 mph - N/A   Overcast
3:55 PM 30.2 °F 21.3 °F 21.2 °F 69% 29.92 in 10.0 mi North 10.4 mph - N/A   Overcast
4:15 PM 30.2 °F 22.6 °F 21.2 °F 69% 29.92 in 10.0 mi North 8.1 mph - N/A   Overcast
4:35 PM 30.2 °F 23.4 °F 21.2 °F 69% 29.92 in 10.0 mi North 6.9 mph - N/A   Overcast
4:55 PM 30.2 °F 21.9 °F 21.2 °F 69% 29.93 in 10.0 mi North 9.2 mph - N/A   Overcast
5:15 PM 30.2 °F 21.3 °F 19.4 °F 64% 29.95 in 10.0 mi North 10.4 mph - N/A   Overcast
5:35 PM 30.2 °F 19.8 °F 19.4 °F 64% 29.95 in 10.0 mi North 13.8 mph 17.3 mph N/A   Overcast
5:55 PM 28.4 °F 19.1 °F 21.2 °F 74% 29.97 in 10.0 mi North 10.4 mph - N/A   Overcast
6:15 PM 28.4 °F 19.7 °F 21.2 °F 74% 29.99 in 10.0 mi North 9.2 mph - N/A   Overcast
6:35 PM 28.4 °F 19.1 °F 19.4 °F 69% 29.99 in 10.0 mi North 10.4 mph 18.4 mph N/A   Overcast
6:55 PM 26.6 °F 18.2 °F 21.2 °F 80% 29.99 in 2.0 mi North 8.1 mph - N/A Snow Light Snow
7:15 PM 26.6 °F 16.8 °F 21.2 °F 80% 30.00 in 2.5 mi North 10.4 mph - N/A Snow Light Snow
7:35 PM 26.6 °F 16.8 °F 21.2 °F 80% 30.00 in 1.5 mi North 10.4 mph - N/A Snow Light Snow
8:15 PM 23.0 °F 11.7 °F 19.4 °F 86% 29.99 in 1.8 mi North 11.5 mph 18.4 mph N/A Snow Light Snow
8:35 PM 23.0 °F 11.7 °F 19.4 °F 86% 29.97 in 3.0 mi North 11.5 mph 16.1 mph N/A Snow Light Snow
8:55 PM 23.0 °F 10.6 °F 19.4 °F 86% 29.95 in 2.5 mi North 13.8 mph 19.6 mph N/A Snow Light Snow
9:15 PM 23.0 °F 11.1 °F 19.4 °F 86% 29.95 in 2.5 mi North 12.7 mph 17.3 mph N/A Snow Light Snow
9:35 PM 23.0 °F 11.1 °F 19.4 °F 86% 29.95 in 4.0 mi North 12.7 mph 17.3 mph N/A Snow Light Snow
9:55 PM 23.0 °F 13.1 °F 19.4 °F 86% 29.97 in 7.0 mi North 9.2 mph - N/A Snow Light Snow
10:15 PM 23.0 °F 13.1 °F 17.6 °F 80% 29.98 in 10.0 mi North 9.2 mph - N/A   Overcast
10:35 PM 23.0 °F 12.4 °F 17.6 °F 80% 29.98 in 2.5 mi North 10.4 mph - N/A Snow Light Snow
10:55 PM 21.2 °F 8.9 °F 17.6 °F 86% 29.98 in 1.8 mi North 12.7 mph - N/A Snow Light Snow
11:16 PM 21.2 °F 8.3 °F 17.6 °F 86% 29.97 in 1.5 mi North 13.8 mph - N/A Snow Light Snow
11:35 PM 21.2 °F 7.8 °F 17.6 °F 86% 29.97 in 1.5 mi North 15.0 mph - N/A Snow Light Snow
11:55 PM 21.2 °F 10.1 °F 17.6 °F 86% 29.97 in 1.8 mi North 10.4 mph - N/A Snow Light Snow